sat.trackr.live / text

‹ back to catalog

COSMOS 2455

NORAD 36095 · 2009-063A

PAYLOAD ACTIVE UNKNOWN

§ Identity

Operator
Country
CIS
Launch date
2009-11-20
Launch site
PLMSC
Launch vehicle
Mass (kg)
RCS (m²)
12.18

External: N2YO · Heavens-Above · Gunter

§ Orbital elements

Epoch: 2026-05-24T21:05:04.661088Z

Period
103.07 min
Inclination
67.1482°
Eccentricity
0.0003681
Mean motion
13.97048434 rev/d
Perigee alt
901.4 km
Apogee alt
906.7 km
Semi-major
7,282.2 km
B*
4.4319e-5
RAAN
309.5855°
Arg perigee
253.1090°
Mean anomaly
106.9592°
Rev number
84,187

§ Raw data

COSMOS 24551 36095U 09063A   26144.87852617 -.00000013  00000+0  44319-4 0  99912 36095  67.1482 309.5855 0003681 253.1090 106.9592 13.97048434841879

JSON: /api/v1/satellites/36095 · /tle

For live sub-satellite position, see the globe view (requires WebGL).

§ Visibility from observer

Set your observer location to see the next 7 days of passes ≥ 10°. The values pass through the URL so the page stays shareable.

No JS? Fill the form by hand. The geolocation button needs JavaScript.